Flag for U.S.A. Weather past 2 weeks in Olathe, Kansas, U.S.A.

Now
37 °F

Fog.


Feels Like: 28 °F
Forecast: 33 / 48 °F
Wind: 16 mph from Northwest

Location: Johnson County Executive Airport

Current Time: Jan 25, 2015 at 11:07:29 AM

Latest Report: Jan 25, 2015 at 9:53 AM


Visibility: 6 mi

Pressure: 29.76 "Hg

Humidity: 86%

Dew point: 33 °F

Location of OlatheLocation

Historic Weather in Olathe — Graph

°F

Olathe temperature yesterday

Maximum temperature yesterday: 59 °F (at 2:53 PM)
Minimum temperature yesterday: 30 °F (at 5:53 AM)
Average temperature yesterday: 44 °F

Past Weeks' High & Low Weather Summary

 TemperatureHumidityPressure
High63 °F (Jan 19, 1:53 PM)100% (Jan 11, 8:53 PM)30.71 "Hg (Jan 11, 8:53 PM)
Low6 °F (Jan 13, 6:53 AM)22% (Jan 10, 2:53 PM)29.64 "Hg (Jan 25, 3:53 AM)
Average36 °F60%30.16 "Hg
* Reported Jan 10 9:53 AM — Jan 25 9:53 AM, Olathe, Weather by CustomWeather, © 2014

Note: Actual official high and low records may vary slightly from our data, if they occured in-between our weather recording intervals... More about our weather records

Advertising

Olathe weather history for previous 24 hours

 ConditionsComfort  
Time TempWeatherWind HumidityBarometerVisibility
9:53 AM
Jan 25
37 °FFog.16 mph86%29.76 "Hg6 mi
8:53 AM37 °FLight rain. Overcast.18 mph86%29.74 "Hg8 mi
8:03 AM37 °FLight rain. Fog.20 mph93%29.71 "Hg4 mi
7:53 AM37 °FLight rain. Fog.18 mph93%29.71 "Hg4 mi
6:53 AM42 °FOvercast.16 mph79%29.67 "Hg9 mi
6:02 AM44 °FMostly cloudy.18 mph73%29.66 "Hg10 mi
5:53 AM44 °FMostly cloudy.22 mph76%29.65 "Hg10 mi
4:53 AM45 °FMostly cloudy.9 mph80%29.64 "Hg10 mi
3:53 AM45 °FPassing clouds.10 mph76%29.64 "Hg10 mi
2:53 AM46 °FMostly cloudy.8 mph83%29.65 "Hg10 mi
1:53 AM46 °FOvercast.7 mph89%29.64 "Hg10 mi
12:53 AM47 °FLight rain. Mostly cloudy.10 mph86%29.66 "Hg10 mi
11:53 PM
Jan 24
46 °FMostly cloudy.10 mph89%29.67 "Hg10 mi
10:53 PM46 °FOvercast.6 mph89%29.70 "Hg10 mi
9:53 PM48 °FLight rain. Overcast.8 mph83%29.74 "Hg6 mi
8:53 PM54 °FOvercast.15 mph38%29.73 "Hg10 mi
7:53 PM53 °FPassing clouds.9 mph38%29.72 "Hg10 mi
6:53 PM53 °FOvercast.7 mph38%29.75 "Hg10 mi
5:53 PM53 °FClear.7 mph38%29.76 "Hg10 mi
4:53 PM56 °FSunny.9 mph36%29.76 "Hg10 mi
3:53 PM57 °FSunny.12 mph34%29.77 "Hg10 mi
2:53 PM59 °FSunny.18 mph32%29.78 "Hg10 mi
1:53 PM56 °FSunny.15 mph39%29.82 "Hg10 mi
12:53 PM54 °FSunny.12 mph43%29.86 "Hg10 mi
11:53 AM51 °FSunny.12 mph46%29.92 "Hg10 mi
Weather by CustomWeather, © 2014

See weather overviewHow to use our weather pages